GSAT-9

Last updated on Sun Oct 06 2024 00:02:41 GMT+0000 (Coordinated Universal Time)

1 42695U 17024A 24279.56451012 -.00000277 00000+0 00000+0 0 9993 2 42695 0.0230 131.1511 0002448 56.2621 127.8621 1.00274774 27093
UTC large
Height (km)
Speed (km/s)
/
Latitude / Longitude
Inclination (degrees)
Orbital Period (minutes)
Azimuth
Elevation
Range (km)
Doppler Factor

Next 0 passes for location: London (51.5072 / 0.1276)

Sorry there are no passes over London.